Tucson, AZ

4:38 AM MST on June 26, 2017 (GMT -0700)
Tucson International

Weather History for KTUS - November, 2011

Change the Weather History Date:

Friday, November 4, 2011

  Actual Average Record
Temperature  
Mean Temperature 66 °F 64 °F  
Max Temperature 80 °F 78 °F 91 °F (2001)
Min Temperature 52 °F 50 °F 29 °F (1956)
Degree Days  
Heating Degree Days 0 3  
Month to date heating degree days 1 11  
Since 1 July heating degree days 15 35  
Cooling Degree Days 1 2  
Month to date cooling degree days 8 10  
Year to date cooling degree days 3455 3129  
Growing Degree Days 16 (Base 50)    
Moisture  
Dew Point 33 °F    
Average Humidity 32    
Maximum Humidity 53    
Minimum Humidity 11    
Precipitation  
Precipitation 0.00 in 0.02 in 0.41 in (2000)
Month to date precipitation 0.00 0.08  
Year to date precipitation 9.23 10.17  
Snow  
Snow 0.00 in - - ()
Month to date snowfall 0.0  
Snow Depth 0.00 in    
Sea Level Pressure  
Sea Level Pressure 29.73 in    
Wind  
Wind Speed 13 mph (South)    
Max Wind Speed 33 mph    
Max Gust Speed 46 mph    
Visibility 9 miles    
Events      
T = Trace of Precipitation, MM = Missing Value Source: NWS Daily Summary

Daily Weather History Graph

Daily Weather History Graph

Search for Another Location

Airport or City:

Trip Planner

Search our weather history database for the weather conditions in past years. The results will help you decide how hot, cold, wet, or windy it might be!

Date:

Astronomy

Nov. 04, 2011 Rise Set
Actual Time 6:42 AM MST 5:31 PM MST
Civil Twilight 6:17 AM MST 5:56 PM MST
Nautical Twilight 5:48 AM MST 6:25 PM MST
Astronomical Twilight 5:19 AM MST 6:54 PM MST
Moon 2:07 PM MST (11/4) 1:17 AM MST (11/4)
Length of Visible Light 11h 39m
Length of Day
10h 48m
Waxing Gibbous, 70% of the Moon is Illuminated
Nov 4
Waxing Gibbous
Nov 10
Full
Nov 18
Last Quarter
Nov 24
New
Dec 2
First Quarter

Hourly Weather History & Observations

Time (MST) Temp. Dew Point Humidity Pressure Visibility Wind Dir Wind Speed Gust Speed Precip Events Conditions
12:53 AM 55.9 °F 27.0 °F 33% 29.85 in 10.0 mi Calm Calm - N/A   Clear
1:53 AM 53.1 °F 28.0 °F 38% 29.83 in 10.0 mi Calm Calm - N/A   Clear
2:53 AM 53.1 °F 27.0 °F 37% 29.83 in 10.0 mi South 4.6 mph - N/A   Clear
3:53 AM 57.9 °F 24.1 °F 27% 29.81 in 10.0 mi South 4.6 mph - N/A   Clear
4:53 AM 55.0 °F 24.1 °F 30% 29.82 in 10.0 mi SSE 8.1 mph - N/A   Clear
5:53 AM 57.0 °F 24.1 °F 28% 29.82 in 10.0 mi SE 5.8 mph - N/A   Clear
6:53 AM 54.0 °F 25.0 °F 33% 29.84 in 10.0 mi ESE 4.6 mph - N/A   Clear
7:53 AM 61.0 °F 25.0 °F 25% 29.83 in 10.0 mi SE 8.1 mph - N/A   Clear
8:53 AM 68.0 °F 26.1 °F 21% 29.81 in 10.0 mi ESE 8.1 mph - N/A   Clear
9:53 AM 73.0 °F 28.0 °F 19% 29.80 in 10.0 mi South 8.1 mph - N/A   Clear
10:53 AM 75.9 °F 24.1 °F 15% 29.78 in 10.0 mi South 20.7 mph 29.9 mph N/A   Clear
11:53 AM 77.0 °F 24.1 °F 14% 29.73 in 10.0 mi South 17.3 mph 28.8 mph N/A   Clear
12:53 PM 80.1 °F 21.9 °F 12% 29.69 in 10.0 mi South 17.3 mph 31.1 mph N/A   Clear
1:53 PM 79.0 °F 24.1 °F 13% 29.66 in 10.0 mi SSW 18.4 mph 26.5 mph N/A   Clear
2:53 PM 80.1 °F 28.0 °F 15% 29.65 in 10.0 mi South 24.2 mph 31.1 mph N/A   Clear
3:53 PM 78.1 °F 33.1 °F 19% 29.63 in 10.0 mi South 20.7 mph 26.5 mph N/A   Clear
4:53 PM 75.0 °F 36.0 °F 24% 29.64 in 10.0 mi SSW 21.9 mph 29.9 mph N/A   Clear
5:53 PM 73.0 °F 39.0 °F 29% 29.63 in 10.0 mi South 16.1 mph 23.0 mph N/A   Clear
6:53 PM 71.1 °F 43.0 °F 36% 29.64 in 10.0 mi South 24.2 mph 33.4 mph N/A   Partly Cloudy
7:53 PM 70.0 °F 48.9 °F 47% 29.63 in 10.0 mi SW 9.2 mph - N/A   Overcast
8:53 PM 68.0 °F 50.0 °F 52% 29.62 in 10.0 mi SW 11.5 mph 21.9 mph N/A   Overcast
9:53 PM 66.0 °F 48.9 °F 54% 29.65 in 10.0 mi SW 20.7 mph 27.6 mph N/A   Overcast
10:51 PM 64.4 °F 44.6 °F 49% 29.75 in 4.0 mi SSW 24.2 mph 38.0 mph N/A   Haze
10:53 PM 64.0 °F 45.0 °F 50% 29.65 in 4.0 mi SSW 28.8 mph 40.3 mph N/A   Haze
11:25 PM 62.6 °F 42.8 °F 48% 29.73 in 5.0 mi SSW 21.9 mph 33.4 mph N/A   Haze
11:51 PM 62.6 °F 42.8 °F 48% 29.73 in 10.0 mi SW 13.8 mph 26.5 mph N/A   Scattered Clouds
11:53 PM 63.0 °F 43.0 °F 48% 29.63 in 10.0 mi SW 19.6 mph 32.2 mph N/A   Partly Cloudy